CZ-6A DEB, 55210

Orbit data source: Space-Track

CZ-6A DEB, 55210 is space debris in SSO originally from a launch on Fri, 11 Nov 2022 UTC launched from the Taiyaun Space Center, China (TSC). Debris objects in space refer to the collection of defunct objects orbiting the Earth. Examples of debris include non-operational satellites, rocket bodies, and fragments generated from explosions, collisions, or faulty payload assembly.

Loading next visibility...
Identifier
55210, 2022-151WB
Orbit
SSO
Country
Flag of CNCN / PRC
Related business
Manufacturer
SAST
Mission
Spacecraft
Bus & Motor
Unknown
Mass
Unknown
Launch date (UTC)
2022-11-11 (4 years ago)
Launch vehicle
Unknown
Launch site
Taiyaun Space Center, China (TSC)
Object type
Payload
Rocket body
Debris
Shape & HBR
Unknown shape, 0.1 m
Radar Cross Section
Small (<0.1 m²)

Expand to show TLE details & history
Last TLE update: 1 day ago

TLE from 1 day ago
0 CZ-6A DEB
1 55210U 22151WB  26206.02189364  .00004745  00000-0  15434-2 0  9992
2 55210  98.7467 240.8440 0039221 183.0680 177.0272 14.38815794187362
Epoch: 2026-07-25T00:31Z
TLE epoch observation values (Epoch: 2026-07-25T00:31:31.610Z)
Latitude
-0.00003°
Longitude
-69.77785°
Altitude
793.327 km
Speed
7.442 km/s
True Right ascension
16h 03m 22s
True Declination
0° 00' 00"
Sunlit
Object was in daylight at epoch
Visualization orbit readout
Latitude
Unknown
Longitude
Unknown
Altitude
Unknown
Speed
Unknown
Apparent Right ascension
Unknown
Apparent Declination
Unknown
Sunlit
N/A
Visualization observer readout
Local Sidereal Time
16:10:58
Azimuth
Unknown
Elevation
Unknown
Doppler factor
Unknown
Orbital elements
Apogee altitude
787.544 km
Perigee altitude
731.554 km
Semi-major axis
7,137.686 km
Eccentricity
0.00392
Inclination
98.7467°
RAAN
240.844°
Arg. of periapsis
183.068°
True anomaly
177.0504°
Mean anomaly
177.0272°
Eccentric anomaly
177.03881°
Mean motion
3.59921 °/min
Orbital period
100.02 mins
BSTAR
0.0015434
Loading maneuver chart data...
Computing Atmospheric mass density...
Loading historical data...
Loading historical data...
Loading historical data...
Loading historical data...
Loading historical data...
Loading historical data...
Loading historical data...

Documentation

Showing up to 5 results
|